Regional Weather Roundup
Issued by NWS

Home | Current Version | Previous Version | Graphics & Text | Print | Product List | Glossary On
Versions: 1 2 3 4 5 6 7 8 9 10 11 12 13 14 15 16 17 18 19 20 21 22 23 24 25 26 27 28 29 30 31 32 33 34 35 36 37 38 39 40 41 42 43 44 45 46 47 48 49 50
000
ASUS43 KLMK 021302
RWRKY
KENTUCKY REGIONAL WEATHER ROUNDUP
NATIONAL WEATHER SERVICE LOUISVILLE KY
900 AM EDT MON MAY 02 2016

NOTE "FAIR" INDICATES FEW OR NO CLOUDS BELOW 12,000 FEET
WITH NO SIGNIFICANT WEATHER AND/OR OBSTRUCTIONS TO VISIBILITY.

KYZ001>023-026-027-061>063-070>075-021400-
WESTERN AND SOUTH CENTRAL KENTUCKY

CITY           SKY/WX    TMP DP  RH WIND       PRES   REMARKS
PADUCAH        CLOUDY    58  52  80 NE8       30.02F
HENDERSON      MOSUNNY   57  50  77 W8        30.04R
OWENSBORO      MOSUNNY   60  53  77 NW12      30.03S
HOPKINSVILLE   NOT AVBL
BOWLING GREEN  MOSUNNY   63  53  70 NW6       30.02R
GLASGOW        NOT AVBL
$$

KYZ024-025-028>034-038-045-046-053-021400-
NORTH CENTRAL KENTUCKY

CITY           SKY/WX    TMP DP  RH WIND       PRES   REMARKS
LOUISVILLE/SDF PTSUNNY   62  55  77 W12       30.01R
LOUISVILLE/LOU MOSUNNY   61  54  77 W7        30.01R
FORT KNOX      NOT AVBL
$$

KYZ035>037-039>044-047>052-055>060-089>105-021400-
NORTHEAST KENTUCKY

CITY           SKY/WX    TMP DP  RH WIND       PRES   REMARKS
LEXINGTON      SUNNY     63  57  81 W8        30.01R
COVINGTON      CLOUDY    60  57  89 SW6       29.98R
FRANKFORT      SUNNY     63  55  75 W7        29.99R
$$

KYZ054-064>069-076>088-106>120-021400-
SOUTHEAST KENTUCKY

CITY           SKY/WX    TMP DP  RH WIND       PRES   REMARKS
JACKSON        PTSUNNY   66  60  81 W3        30.02R
LONDON         CLOUDY    65  61  87 SW6       30.02R
SOMERSET       NOT AVBL
MIDDLESBORO    CLOUDY    67  65  93 CALM      30.03S
MONTICELLO     CLOUDY    67  63  87 W10       30.04R
$$





USA.gov is the U.S. government's official web portal to all federal, state and local government web resources and services.